Miscellaneous Local Product
Issued by NWS Hastings, NE

Home | Current Version | Previous Version | Graphics & Text | Print | Product List | Glossary On
Versions: 1 2 3 4 5 6 7 8 9 10 11 12 13 14 15 16 17 18 19 20 21 22 23 24 25 26 27 28 29 30 31 32 33 34 35 36 37 38 39 40 41 42 43 44 45 46 47 48 49 50
000
AXUS43 KGID 040702
MISGRI

GID CWA HOURLY WEATHER ROUNDUP
NATIONAL WEATHER SERVICE HASTINGS NE
200 AM CDT WED MAY 04 2016

NOTE: "FAIR" INDICATES FEW OR NO CLOUDS BELOW 12,000 FEET WITH NO
SIGNIFICANT WEATHER AND/OR OBSTRUCTIONS TO VISIBILITY.

...SOUTH CENTRAL NEBRASKA...

CITY           SKY/WX    TMP DP  RH WIND       PRES   REMARKS
GRAND ISLAND   CLEAR     50  42  74 NW8       30.00R
HASTINGS       CLEAR     53  42  66 NW12      29.98R
KEARNEY        CLEAR     52  39  62 NW9       30.00S
ORD            CLEAR     47  42  83 NW8       30.01R
YORK           CLEAR     54  45  71 NW14      29.96R
AURORA         CLEAR     52  44  74 NW12      29.98R
LEXINGTON      CLEAR     46  41  83 NW8       30.04S
HOLDREGE       CLEAR     51  40  65 W7        30.02S
HEBRON         CLEAR     54  45  72 CALM      29.95S

...NEBRASKA PANHANDLE...

CITY           SKY/WX    TMP DP  RH WIND       PRES   REMARKS
CHADRON        CLEAR     43  40  89 SW7       30.15R
ALLIANCE       CLEAR     37  36  96 W9        30.16R WCI  30
SCOTTSBLUFF    CLEAR     44  39  82 N6        30.18S
SIDNEY         CLEAR     41  35  79 NW7       30.19S

...WESTERN AND NORTH CENTRAL NEBRASKA...

CITY           SKY/WX    TMP DP  RH WIND       PRES   REMARKS
VALENTINE      CLEAR     47  40  76 NW6       30.07R
AINSWORTH      CLEAR     47  41  78 NW3       30.06R
ONEILL         CLEAR     49  41  73 N10       30.01R
BROKEN BOW     CLEAR     52  41  66 N8        30.03R
IMPERIAL       CLEAR     47  37  68 W8        30.13R
NORTH PLATTE   CLEAR     41  38  89 NW8       30.08R
MCCOOK         CLEAR     44  39  82 W8        30.08R

...EASTERN NEBRASKA...

CITY           SKY/WX    TMP DP  RH WIND       PRES   REMARKS
NORFOLK        PTCLDY    51  38  60 NW8       29.96R
SO SIOUX CITY  PTCLDY    55  33  43 N13       29.92R
TEKAMAH        CLEAR     53  40  61 N14       29.90R
COLUMBUS       CLEAR     54  37  54 NW8       29.96R
ALBION         CLEAR     44  38  79 NW3       29.99R
OMAHA EPPLEY   CLEAR     57  43  59 N10       29.89R
OFFUTT AFB     CLEAR     60  42  51 N12       29.88R
MILLARD        CLEAR     61  43  52 NW6       29.89R
LINCOLN        CLEAR     59  44  57 NW8       29.93R
NEBRASKA CITY  PTCLDY    57  43  59 NW12G20   29.88R
BEATRICE       CLEAR     53  45  73 W10       29.91S
FALLS CITY     MOCLDY    58  44  60 W14       29.85F

...NORTHERN KANSAS...

CITY           SKY/WX    TMP DP  RH WIND       PRES   REMARKS
GOODLAND       CLEAR     43  35  73 W8        30.14R
HILL CITY      CLEAR     48  42  80 W10       30.07R
NORTON         SUNNY     46  39  76 W9        30.05
PHILLIPSBURG   CLEAR     46  43  87 CALM      30.03S
SMITH CENTER   CLEAR     45  41  87 SW7       30.01S
BELOIT         CLEAR     48  45  87 W7        29.98F
HAYS           CLEAR     48  36  61 W6        30.05S
RUSSELL        CLEAR     49  44  83 W8        30.02S
CONCORDIA      CLEAR     53  44  71 W10       29.97S
SALINA         CLEAR     55  45  68 SW3       29.99S
TOPEKA         CLEAR     51  47  86 W3        29.91F



USA.gov is the U.S. government's official web portal to all federal, state and local government web resources and services.